Tracking 28790 objects as of 18-Apr-2024
HD Live streaming from Space Station
objects crossing your sky now

OPS 7350

Track OPS 7350 now!
OPS 7350 is classified as:


NORAD ID: 12339
Int'l Code: 1981-025A
Perigee: 36,132.5 km
Apogee: 36,273.0 km
Inclination: 9.8 °
Period: 1,457.0 minutes
Semi major axis: 42573 km
RCS: Unknown
Launch date: March 16, 1981
Source: United States (US)
Launch site: AIR FORCE EASTERN TEST RANGE (AFETR)
Your satellite tracking list
Your tracking list is empty




NASA's NSSDC Master Catalog

Two Line Element Set (TLE):
1 12339U 81025A   24109.24861113 -.00000191  00000-0  00000-0 0  9998
2 12339   9.7878 310.8325 0016499 265.6454  83.1404  0.98830277 18027
Source of the keplerian elements: McCants